sat.trackr.live / text

‹ back to catalog

CHUANGXIN 20C (CX-20C)

NORAD 58427 · 2023-181C

PAYLOAD ACTIVE UNKNOWN

§ Identity

Operator
Country
PRC
Launch date
2023-11-23
Launch site
XICLF
Launch vehicle
Mass (kg)
RCS (m²)

External: N2YO · Heavens-Above · Gunter

§ Orbital elements

Epoch: 2026-05-25T04:40:00.967296Z

Period
107.34 min
Inclination
49.9598°
Eccentricity
0.0011073
Mean motion
13.41482300 rev/d
Perigee alt
1,095.5 km
Apogee alt
1,112.0 km
Semi-major
7,481.9 km
B*
8.7582e-5
RAAN
51.0671°
Arg perigee
188.6451°
Mean anomaly
171.4237°
Rev number
12,266

§ Raw data

CHUANGXIN 20C (CX-20C)1 58427U 23181C   26145.19445564 -.00000079  00000+0  87582-4 0  99972 58427  49.9598  51.0671 0011073 188.6451 171.4237 13.41482300122665

JSON: /api/v1/satellites/58427 · /tle

For live sub-satellite position, see the globe view (requires WebGL).

§ Visibility from observer

Set your observer location to see the next 7 days of passes ≥ 10°. The values pass through the URL so the page stays shareable.

No JS? Fill the form by hand. The geolocation button needs JavaScript.